Погода в Индиге

Погода в Индиге : погода сейчас, прогноз погоды и архив. Всё, что Вы хотите узнать о погоде в Индиге!

Поиск расширенной информации на нашем сайте:

Другие новости

Новости СМИ2

Главная страница сайта

Новости сайта

03.07.2017

Напоминаем, что на нашем специализированном сайте Метеоцентр.Азия вы можете получить высокодетализированные автоматические прогнозы погоды по пунктам России, СНГ и мира в авиационном формате (включающие направление и скорость ветра, видимость, явления погоды, количество и форму облачности, нижнюю и верхнюю границу облачности).


Погода в Индиге - сегодня

Время (UTC), дата Ветер
(°,м/с) 
Видим.   Явления Облачность Т
(°С)
Тd
(°С)
f(%) Тe
(°С)
Pmin
(гПа)
dP
(гПа)
Po
(мм)
O2
(г/м3)
Тmin Tmax R s Состояние
почвы
15 12.12.17 180 (Ю) 6{13}  10 км    10/10 600 м 
[Sc]
-4.5 -5.4 93 -9  1016.3  762  313    -2.7       
18 12.12.17 190 (Ю) 6{12}  4000 м  слаб. снег  10/10 300 м 
[St]
-6.5 -7.3 94 -11  1015.3  -1  761  315           
21 12.12.17 160 (Ю) 10 км  {снег}  10/10 300 м 
[St]
-5.3 -6.7 90 -9  1014.2  -1.1  760  313           
00 13.12.17 160 (Ю) 7-10{10}  10 км  {снег}  4/4 600 м 
[Sc]
-6.1 -8.4 84 -11  1012  -2.2  759  314           
03 13.12.17 150 (ЮВ) 11-14{14}  10 км  позёмок  4/4 600 м 
[Sc]
-6 -7.9 86 -13  1008.2  -3.8  756  312  -6.7    0.0  равномерный
сухой снег
100% 
06 13.12.17 180 (Ю) 10-15{19}  10 км  позёмок  6/4 600 м верхняя 
[Sc|Ci fib]
-6.2 -7.7 89 -13  1004.7  -3.5  753  311           
09 13.12.17 180 (Ю) 9-13{15}  20000 м  позёмок  8/4 600 м средняя 
[Sc|Ac trans]
-4.4 -6.7 84 -10  1001.7  -3  751  308           
12 13.12.17 170 (Ю) 13-18{18}  1000 м  слаб. ливневой снег  10/10 300 м кучево-дожд. 
[Cb cap]
-4 -5.2 91 -11  997.6  -4.1  748  306           
15 13.12.17 180 (Ю) 12-16{19}  10 км  метель{ливн. осадки}  10/10 600 м кучево-дожд. 
[Cb cap]
-3 -4.3 91 -9  994  -3.6  745  304    -3  0.0     
18 13.12.17 180 (Ю) 13-17{20}  10 км  позёмок{ливн. осадки}  10/10 600 м 
[Sc]
-2.4 -3.6 91 -9  990.8  -3.2  743  302           
21 13.12.17 200 (Ю) 14-18{21}  1000 м  метель  10/10 600 м 
[Sc]
-0.8 -2.1 91 -7  989.3  -1.5  742  300           
00 14.12.17 230 (ЮЗ) 13-16{18}  1000 м  метель  10/10 600 м 
[Sc]
-0.2 -1.7 90 -6  990.4  1.1  742  300           
03 14.12.17 220 (ЮЗ) 13-16{18}  1000 м  метель  10/10 600 м 
[Sc]
-2.1 -3.3 91 -8  992.5  2.1  744  302  -3      равномерный
сухой снег
100% 
06 14.12.17 220 (ЮЗ) 15-19{20}  10 км  позёмок  10/10 600 м 
[Sc]
-2.3 -4.5 85 -9  994.3  1.8  745  303           
12 14.12.17 220 (ЮЗ) 16-20{20}  10 км  позёмок  9/9 600 м 
[Sc]
-0.7 -2.2 90 -7  996.7  747  302           
15 14.12.17 220 (ЮЗ) 16-20{22}  1000 м  метель  10/10 600 м 
[Sc]
-0.8 -2.1 91 -7  998.3  1.6  748  303    -0.6       
18 14.12.17 230 (ЮЗ) 17-23{27}  1000 м  метель  ?/?  
-0.2 -0.8 96 -7  1000.5  2.2  750  302           
21 14.12.17 230 (ЮЗ) 18-23{23}  1000 м  метель  10/10 600 м 
[Sc]
-0.2 -1.9 88 -7  1002.1  1.6  751  303           
00 15.12.17 220 (ЮЗ) 16-20{23}  1000 м  метель  10/10 600 м 
[Sc]
-0.5 -2.6 86 -7  1004.3  2.2  753  304           
03 15.12.17 230 (ЮЗ) 14-18{20}  1000 м  метель  10/10 600 м 
[Sc]
-1.1 -3 87 -7  1005.7  1.4  754  305  -1.1      равномерный
сухой снег
100% 
06 15.12.17 220 (ЮЗ) 12-15{19}  10 км  позёмок  8/6 600 м средняя 
[Sc|Ac trans]
-2.5 -4.4 87 -9  1007.7  755  308  -2.5         
09 15.12.17 210 (ЮЗ) 9-12{15}  20000 м    9/9 600 м 
[Sc]
-2.8 -4.4 89 -8  1009.3  1.6  757  309           
12 15.12.17 230 (ЮЗ) 10-12{12}  10 км    10/10 600 м 
[Sc]
-3.9 -5.8 87 -10  1010  0.7  757  310           
15 15.12.17 210 (ЮЗ) 10-11{13}  10 км    10/10 600 м 
[Sc]
-5.6 -7.4 87 -12  1010.3  0.3  757  312    -1.1       
18 15.12.17 150 (ЮВ) 4{12}  10 км    10/10 600 м 
[Sc]
-5.7 -7.9 84 -9  1010.7  0.4  758  313           
Время (UTC), дата Ветер
(°,м/с) 
Видим.   Явления Облачность Т
(°С)
Тd
(°С)
f(%) Тe
(°С)
Pmin
(гПа)
dP
(гПа)
Po
(мм)
O2
(г/м3)
Тmin Tmax R s Состояние
почвы

Для получения пояснительной информации подведите курсор к названию столбца.

ПОГОДА в Индиге - архив

Всё, что Вы хотите узнать о погоде в Индиге - удобно и подробно!

Выберите нужную дату (начиная с 1 января 2015* года) и нажмите кнопку "Найти".
Будут отображены архивные сводки погоды по пункту Индига, начиная с указанной даты.


Отображать данные в формате CSV (для использования в таблицах Excel)


Внимание! Наш архив погоды предназначен исключительно для личного некоммерческого использования в познавательных целях. Если Вам необходимы официальные справки о состоянии погоды (для производственных, юридических, коммерческих и т.п. целей), обращайтесь в органы Росгидромета.

*Примечание: данная дата относится к архиву по метеостанциям СССР (Россия, СНГ, Балтия).
Архив по метеостанциям Зарубежной Европы и Азии (кроме Китая) хранится 10 дней, по другим регионам земного шара (Китай, Африка, Америка, Австралия, Океания) - 1 день.

Индига - район местоположения метеостанции


Название, широта, долгота, высота метеостанции:
Индига 67.7°ш. 48.7°д. 4 м над ур. моря [Российская Федерация]

Дополнительная информация

В oтличие oт бoльшинства пoгoдных сайтoв мы публикуем пoдрoбную метеoинфoрмацию в детальнoм прoфессиoнальнoм фoрмате.

Характеристики температуры и влажнoсти вoздуха измеряются на высoте 2 м в тени вдали oт зданий и деревьев.
Скoрoсть ветра измеряется на высoте 10 м (на урoвне рoста челoвека скoрoсть ветра ниже в 1.5-2 раза). Если метеoстанция нахoдится в гoрoде или в лесу, тo скoрoсть ветра занижена на 2-4 м/с пo сравнению с oткрытым местoм. Скoрoсть ветра над акватoриями крупных рек и oзёр, а также на вершинах хoлмoв на 2-5 м/с выше, чем в oбычных услoвиях.
Атмoсфернoе давление в разных тoчках местнoсти мoжет значительнo oтличаться oт давления на метеoстанции, в зависимoсти oт услoвий рельефа (при пoдъёме на 10 м давление пoнижается примернo на 1 мм рт.ст.).